GW3313 Weather Reports


time (UTC)temp
C
wind
direction
speed
KPH
gust
KPH
rain 1hr
cm
rain 24hr
cm
rain mn
cm
humidity
%
barometer
mb
20260504190016 26 158 4.8 17.7 0.00 0.00 0.00 61 1012.0
20260504185016 26 180 3.2 14.5 0.00 0.00 0.00 60 1012.0
20260504184015 27 203 1.6 12.9 0.00 0.00 0.00 60 1012.4
20260504183016 27 203 4.8 20.9 0.00 0.00 0.00 58 1012.3
20260504182015 27 180 3.2 19.3 0.00 0.00 0.00 60 1012.5
20260504181016 26 158 3.2 14.5 0.00 0.00 0.00 62 1012.4
20260504180015 26 158 4.8 16.1 0.00 0.00 0.00 63 1012.7
20260504175015 26 180 3.2 14.5 0.00 0.00 0.00 63 1012.8
20260504174016 25 180 3.2 16.1 0.00 0.00 0.00 64 1013.3
20260504173015 25 158 3.2 17.7 0.00 0.00 0.00 64 1013.7
20260504172015 25 180 1.6 11.3 0.00 0.00 0.00 68 1013.6
20260504171015 23 180 3.2 14.5 0.00 0.00 0.00 69 1013.7
20260504151017 21 158 1.6 17.7 0.00 0.00 0.00 75 1014.3
20260504150517 21 180 4.8 19.3 0.00 0.00 0.00 74 1014.3
20260504140517 18 180 3.2 11.3 0.00 0.00 0.00 78 1014.4
20260504130517 16 180 3.2 12.9 0.00 0.00 0.00 85 1014.1
20260504110517 14 0.0 0.0 0.00 0.00 0.00 87 1013.9
20260504100516 15 0.0 0.0 0.00 0.00 0.00 84 1014.2
20260504081517 16 0.0 3.2 0.00 0.00 0.00 79 1014.8
20260504080516 16 0.0 6.4 0.00 0.00 0.00 78 1014.9
20260504050516 18 158 1.6 8.0 0.00 0.00 0.00 69 1017.0
20260504045517 18 0.0 4.8 0.00 0.00 0.00 68 1016.9
20260504044517 18 180 1.6 9.7 0.00 0.00 0.00 67 1017.1
20260504043517 18 180 1.6 8.0 0.00 0.00 0.00 66 1017.0
20260504042517 18 0.0 8.0 0.00 0.00 0.00 64 1017.1
20260504041517 18 180 1.6 6.4 0.00 0.00 0.00 62 1017.2
20260504040537 18 0.0 6.4 0.00 0.00 0.00 61 1017.1
20260504035517 19 0.0 8.0 0.00 0.00 0.00 60 1017.2
20260504034517 19 180 1.6 9.7 0.00 0.00 0.00 58 1017.0
20260504033538 19 180 1.6 12.9 0.00 0.00 0.00 56 1017.0
20260504032537 19 180 1.6 11.3 0.00 0.00 0.00 55 1016.8
20260504031517 19 0.0 6.4 0.00 0.00 0.00 55 1017.0
20260504030517 19 0.0 0.0 0.00 0.00 0.00 54 1016.8
20260504025517 19 0.0 0.0 0.00 0.00 0.00 54 1017.0
20260504024517 19 0.0 0.0 0.00 0.00 0.00 54 1016.8
20260504023517 20 0.0 1.6 0.00 0.00 0.00 52 1016.6
20260504022517 20 0.0 3.2 0.00 0.00 0.00 51 1016.5
20260504021517 20 0.0 1.6 0.00 0.00 0.00 49 1016.7
20260504020536 21 0.0 1.6 0.00 0.00 0.00 48 1016.6
20260504015517 21 0.0 3.2 0.00 0.00 0.00 48 1016.5
20260504014517 21 0.0 4.8 0.00 0.00 0.00 47 1016.2
20260504013517 21 0.0 1.6 0.00 0.00 0.00 47 1016.1
20260504012517 22 0.0 1.6 0.00 0.00 0.00 46 1016.2
20260504011537 22 0.0 0.0 0.00 0.00 0.00 45 1016.2
20260504010516 22 0.0 1.6 0.00 0.00 0.00 44 1016.2
20260504005517 22 0.0 0.0 0.00 0.00 0.00 43 1016.3
20260504004516 23 0.0 1.6 0.00 0.00 0.00 42 1016.1
20260504003637 23 0.0 4.8 0.00 0.00 0.00 40 1016.1
20260504002516 23 0.0 3.2 0.00 0.00 0.00 40 1016.2
20260504001536 23 180 1.6 11.3 0.00 0.00 0.00 40 1016.4
20260504000517 23 158 1.6 8.0 0.00 0.00 0.00 39 1016.5
20260503235517 24 0.0 3.2 0.00 0.00 0.00 39 1016.6
20260503234516 25 180 1.6 8.0 0.00 0.00 0.00 38 1016.7
20260503233536 25 0.0 4.8 0.00 0.00 0.00 37 1016.8
20260503232516 25 90 1.6 6.4 0.00 0.00 0.00 38 1016.8
20260503231516 25 0.0 4.8 0.00 0.00 0.00 37 1016.8
20260503230537 25 0.0 3.2 0.00 0.00 0.00 37 1016.7
20260503225516 25 135 1.6 8.0 0.00 0.00 0.00 36 1016.7
20260503224516 25 0.0 6.4 0.00 0.00 0.00 35 1017.0
20260503223516 26 113 1.6 8.0 0.00 0.00 0.00 35 1017.2
20260503222516 26 180 1.6 16.1 0.00 0.00 0.00 34 1017.3
20260503221516 26 90 1.6 6.4 0.00 0.00 0.00 35 1017.4
20260503220517 26 158 1.6 14.5 0.00 0.00 0.00 35 1017.6
20260503215536 26 90 1.6 9.7 0.00 0.00 0.00 34 1017.7
20260503214516 26 180 1.6 9.7 0.00 0.00 0.00 34 1017.8
20260503213516 26 158 1.6 11.3 0.00 0.00 0.00 35 1017.9
20260503212516 26 158 1.6 6.4 0.00 0.00 0.00 34 1018.1
20260503211516 26 158 4.8 17.7 0.00 0.00 0.00 33 1018.2
20260503210516 26 158 1.6 6.4 0.00 0.00 0.00 34 1018.4
20260503205516 26 180 3.2 11.3 0.00 0.00 0.00 35 1018.8
20260503204516 26 158 3.2 12.9 0.00 0.00 0.00 33 1018.9
20260503203516 27 180 3.2 17.7 0.00 0.00 0.00 34 1019.1
20260503202516 26 248 1.6 12.9 0.00 0.00 0.00 36 1019.2
20260503201516 26 180 3.2 12.9 0.00 0.00 0.00 37 1019.3
20260503200516 26 180 3.2 12.9 0.00 0.00 0.00 36 1019.3
20260503195516 26 158 4.8 14.5 0.00 0.00 0.00 37 1019.8
20260503194516 26 158 1.6 12.9 0.00 0.00 0.00 37 1019.8
20260503193516 26 158 1.6 12.9 0.00 0.00 0.00 36 1019.9
20260503192516 26 90 3.2 11.3 0.00 0.00 0.00 37 1020.1
20260503191516 26 90 1.6 14.5 0.00 0.00 0.00 36 1020.0